RH
69 66 61 54 53 60 62 61 61 67 70 74 73 60 54 61 56 53 53 42 45 54 61 69 85 98 97 97 97 97 96 95 94 92 92 92 88 87 89 90 87 85 85
71 71 66 59 57 60 57 61 63 69 81 79 84 67 60 63 55 58 56 44 47 54 60 72 92 98 98 98 99 98 97 97 97 97 94 93 92 94 92 95 91 92 91
58 62 69 71 70 62 62 63 67 74 82 85 88 79 69 66 57 61 58 49 48 54 63 72 85 96 98 98 98 98 98 97 96 96 93 94 93 94 95 92 93 94 95
69 77 75 80 83 75 68 64 75 83 86 88 88 92 75 70 63 63 63 57 50 55 65 73 78 89 96 98 98 99 97 97 97 97 97 97 96 97 97 95 95 96 94
70 78 78 75 74 81 78 71 73 77 84 87 90 96 76 73 62 68 68 65 55 55 63 69 76 82 89 98 98 98 98 97 97 97 98 97 96 95 92 95 95 95 97
70 78 81 79 78 78 77 73 70 72 76 87 87 96 79 77 71 71 73 70 67 59 61 64 69 76 80 90 96 97 97 98 97 97 99 98 97 93 92 91 93 94 95
71 71 80 80 79 81 84 93 86 89 93 99 98 97 78 78 80 77 79 77 73 72 67 70 71 78 78 81 92 93 94 99 99 97 99 99 98 91 89 84 82 82 81
77 78 78 80 84 85 88 89 95 80 84 96 92 85 84 90 85 85 84 83 78 81 77 73 69 70 70 80 83 87 94 95 95 95 95 89 88 86 87 78 80 81 82
77 78 80 83 85 86 85 95 96 91 97 98 98 99 96 95 97 94 89 88 84 81 81 83 82 75 82 70 77 78 92 84 88 92 91 85 81 77 78 81 83 82 83
57 72 80 82 81 83 87 94 94 92 89 97 99 99 93 98 97 97 99 98 93 89 83 80 87 94 86 85 87 71 73 80 75 79 83 88 81 79 81 84 85 84 87
50 50 54 68 78 81 85 90 93 94 92 96 95 94 99 98 98 98 95 93 98 98 93 91 92 92 90 93 93 90 91 81 81 75 78 86 92 89 86 90 93 96 98
50 53 54 53 54 63 78 86 91 94 95 95 97 97 98 98 98 98 97 99 94 96 99 99 98 98 97 97 97 97 94 97 94 89 91 90 93 96 95 97 96 98 97
53 53 53 54 55 56 59 63 70 83 91 93 95 98 98 95 97 98 97 98 98 98 98 98 93 96 95 94 98 97 98 98 99 96 98 97 98 98 96 92 91 87 82
50 49 48 50 52 55 58 60 61 64 67 78 88 91 95 94 97 98 98 97 96 98 96 98 95 97 96 93 97 97 97 97 98 97 97 96 93 89 86 82 78 77 73
47 46 46 47 47 49 51 56 60 64 69 71 69 73 81 81 86 92 94 95 97 96 97 98 96 96 94 93 95 96 96 97 97 96 93 92 89 87 86 88 86 83 79
51 51 50 50 50 50 50 51 53 55 58 64 69 71 73 75 76 77 80 84 90 96 95 93 95 96 97 94 94 95 96 97 97 97 97 97 96 95 91 86 80 73 65
54 54 54 55 55 55 55 55 55 56 57 58 59 62 65 67 69 70 72 70 71 75 74 80 86 90 92 93 93 93 92 92 91 90 88 84 78 72 69 63 60 58 54
54 54 55 56 57 58 59 60 62 63 63 63 64 65 65 65 66 68 71 71 70 70 69 66 69 67 67 67 68 67 66 64 63 61 60 58 55 52 50 49 47 44 41
40 42 45 47 49 51 53 55 59 61 62 64 66 67 66 65 66 65 66 65 65 63 61 58 56 54 52 49 47 46 46 45 45 46 47 47 46 45 44 44 42 40 38
38 39 40 40 41 44 45 46 48 49 49 50 53 55 55 54 53 52 50 49 49 49 50 52 53 52 52 52 52 51 49 47 46 45 44 42 40 40 40 38 37 34 32
34 34 36 37 38 39 42 43 44 44 44 44 45 46 44 44 45 46 47 47 47 46 45 45 46 46 45 44 44 42 42 42 41 41 41 40 38 37 36 34 34 34 32
32 33 34 35 36 39 40 42 44 45 45 46 47 48 48 46 46 44 43 42 44 45 45 45 43 42 40 39 39 38 37 37 36 35 35 34 34 33 32 32 32 32 30
29 30 30 31 32 35 38 40 41 44 47 49 50 51 52 51 49 47 46 44 43 42 40 39 37 37 36 35 34 34 34 34 34 33 33 33 32 32 31 30 30 29 27
25 25 25 27 28 31 34 36 38 40 42 46 48 48 48 50 52 51 50 49 47 45 43 42 42 41 41 39 38 38 37 36 35 35 34 33 32 31 30 28 27 25 23
28 28 28 28 29 30 33 35 37 38 38 39 41 43 45 45 46 46 46 45 43 43 42 41 40 38 37 37 36 35 35 34 33 32 32 30 28 25 23 21 20 20 19
29 29 31 32 33 34 36 39 41 40 39 39 39 40 42 43 42 42 42 42 41 39 38 37 36 36 35 34 32 31 30 28 27 26 24 22 21 20 20 20 20 20 20